Location: Brissac
(47.3500°N, 0.4500°W)
Time: 16:18:44
(UTC+02:00)

ISS - Pass Details

Date: 22 May 2021
Orbit: 419 x 422 km, 51.6° (Epoch: 25 June)

Event Time Altitude Azimuth Distance (km) Brightness Sun altitude
Rises 01:11:47 0° 294° (WNW) 2,375 0.6 -21.5°
Reaches altitude 10° 01:13:53 10° 296° (WNW) 1,509 -0.5 -21.5°
Enters shadow 01:16:59 65° 341° (NNW) 469 -3.4 -21.6°
